Погода Богородицкое

Погода Богородицкое : погода сейчас, прогноз погоды и архив. Всё, что Вы хотите узнать о погоде Богородицкое!

Поиск расширенной информации на нашем сайте:

Другие новости

Новости СМИ2

Главная страница сайта

Новости сайта

02.10.2013

Напоминаем, что на нашем новом сайте вы можете получить высокодетализированные прогнозы погоды по пунктам России, СНГ и мира (включающие важные для авиации метеовеличины, такие как направление и скорость ветра, видимость, явления погоды, количество и форма облачности, нижняя и верхняя граница облачности), а также ознакомиться с разнообразными материалами по авиационной метеорологии и подборкой полезных ссылок на эту тему.

Сайт Метеоцентр.Азия посвящён разработке технологий оптимизации авиаметеорологического обслуживания, включая проектирование и перспективное создание нескольких автоматизированных авиаметеорологических систем:
- система выпуска высокодетальных прогностических карт явлений погоды для нижнего воздушного пространства по России и ближнему зарубежью;
- система верификации прогнозов TAF (выпускаемых синоптиками официальных АМСГ РФ и ближнего зарубежья) и AUTOTAF (выпускаемых сайтом Метеоцентр.Азия) - выявление ошибок, онлайн-сопоставление с фактической погодой METAR, автоматическое внесение коррективов в прогнозы при резком отклонении фактической погоды от прогноза, подсчёт оправдываемости прогнозов по элементам и в целом;
- система обработки, анализа и отображения авиаметеорологической информации для применения провайдерами метеорологической информации.

Рекомендуем: Пожелаю всем кушать Super P-force в объёмах, которыми я ем.

Погода Богородицкое - сегодня

Время (UTC), дата Ветер
(°,м/с) 
Видим.   Явления Облачность Т
(°С)
Тd
(°С)
f(%) Тe
(°С)
Pmin
(гПа)
dP
(гПа)
Po
(мм)
O2
(г/м3)
Тmin Tmax R s Состояние
почвы
09 26.04.17 200 (Ю) 8-15{16}  20000 м    10/0 верхняя 
[Ci fib]
+14.7 -3 29 +14  1023  0.7  747  286           
12 26.04.17 210 (ЮЗ) 7-12{15}  20000 м    3/0 верхняя 
[Ci fib]
+17.1 +0.2 32 +17  1021.9  -0.8  746  283           
15 26.04.17 190 (Ю) 6-12{14}  20000 м    10/0 верхняя 
[Ci fib]
+15.9 -3.3 27 +15  1020.8  -1.3  745  284           
18 26.04.17 190 (Ю) 4{12}  10 км    3/0 верхняя 
[Ci fib]
+11.5 +0 45 +11  1021.6  0.4  746  288    +17.3       
21 26.04.17 180 (Ю) 10 км    3/0 верхняя 
[Ci fib]
+8.4 -0.5 53 +8  1022.2  0.4  746  292           
00 27.04.17 190 (Ю) 10 км    1/0 верхняя 
[Ci fib]
+6.3 -0.5 62 +5  1022.7  0.3  746  294           
03 27.04.17 170 (Ю) 20000 м    8/0 верхняя 
[Ci fib]
+4.8 -0.5 69 +4  1022.8  -0.1  746  295  +4.7         
06 27.04.17 200 (Ю) 20000 м    10/3 2000 м средняя, верхняя 
[Ac trans|Ci fib]
+11.3 -0.9 43 +11  1023.1  0.9  747  289  +4.7        сухая 
09 27.04.17 210 (ЮЗ) 5-10{13}  20000 м    8/4 2000 м средняя, верхняя 
[Ac trans|Ci fib]
+18.1 +0.2 30 +18  1021.4  -0.9  746  282           
12 27.04.17 200 (Ю) 5-12{13}  20000 м    10/8 2000 м средняя, верхняя 
[Ac trans|Ci fib]
+20.1 -1.2 24 +20  1020.2  -1.1  745  280           
15 27.04.17 210 (ЮЗ) 4{12}  20000 м    10/3 2000 м средняя, верхняя 
[Ac trans|Ci fib]
+20.7 -1.2 23 +21  1019.2  -0.9  745  279           
18 27.04.17 190 (Ю) 2{11}  10 км    10/0 верхняя 
[Ci fib]
+15.6 -1.4 31 +16  1020.4  0.5  745  284    +20.9       
21 27.04.17 200 (Ю) 10 км    ясно 
+10.8 +0 47 +11  1021.6  0.8  746  289           
00 28.04.17 200 (Ю) 10 км    ясно 
+10.3 +0.9 52 +10  1021.5  -0.1  746  289           
03 28.04.17 190 (Ю) 20000 м    3/0 верхняя 
[Ci fib]
+8.1 +1.7 64 +8  1022.2  0.6  746  292  +7.8         
06 28.04.17 190 (Ю) 20000 м    3/0 верхняя 
[Ci fib]
+15.9 +2.3 40 +17  1021.7  0.2  746  284  +7.8         
09 28.04.17 210 (ЮЗ) 20000 м    3/0 верхняя 
[Ci fib]
+20.7 +2.9 31 +21  1020.8  -0.4  746  279           
12 28.04.17 170 (Ю) 20000 м    1/0 верхняя 
[Ci fib]
+22.6 -1.2 20 +23  1019.5  -1.2  745  277           
15 28.04.17 160 (Ю) 20000 м    6/0 верхняя 
[Ci fib]
+21.5 +0.9 25 +22  1018.5  -1  744  278           
18 28.04.17 110 (В) 10 км    8/0 верхняя 
[Cc]
+14.3 +3.2 47 +16  1019.2  744  284    +23       
21 28.04.17 тихо ()   10 км    4/0 верхняя 
[Ci fib]
+11.9 +4.1 59 +12  1019.6  0.2  744  287           
00 29.04.17 тихо ()   10 км    3/0 верхняя 
[Ci fib]
+8 +4.1 76 +8  1019.6  -0.4  744  291           
03 29.04.17 090 (В) 20000 м    1/1 2000 м средняя 
[Ac trans]
+7.8 +4.1 77 +9  1019.6  744  291  +6.6         
06 29.04.17 120 (ЮВ) 20000 м    1/0 верхняя 
[Ci fib]
+16 +7.4 57 +17  1018.5  -0.3  744  282  +6.6         
09 29.04.17 130 (ЮВ) 20000 м    3/1 1000 м верхняя 
[Cu hum|Ci fib]
+20.4 +6.5 40 +20  1017.7  -0.3  744  278           
Время (UTC), дата Ветер
(°,м/с) 
Видим.   Явления Облачность Т
(°С)
Тd
(°С)
f(%) Тe
(°С)
Pmin
(гПа)
dP
(гПа)
Po
(мм)
O2
(г/м3)
Тmin Tmax R s Состояние
почвы

Для получения пояснительной информации подведите курсор к названию столбца.

ПОГОДА Богородицкое - архив

Всё, что Вы хотите узнать о погоде Богородицкое - удобно и подробно!

Выберите нужную дату (начиная с 1 января 2015* года) и нажмите кнопку "Найти".
Будут отображены архивные сводки погоды по пункту Богородицкое, начиная с указанной даты.


Отображать данные в формате CSV (для использования в таблицах Excel)


Внимание! Наш архив погоды предназначен исключительно для личного некоммерческого использования в познавательных целях. Если Вам необходимы официальные справки о состоянии погоды (для производственных, юридических, коммерческих и т.п. целей), обращайтесь в органы Росгидромета.

*Примечание: данная дата относится к архиву по метеостанциям СССР (Россия, СНГ, Балтия).
Архив по метеостанциям Зарубежной Европы и Азии (кроме Китая) хранится 10 дней, по другим регионам земного шара (Китай, Африка, Америка, Австралия, Океания) - 1 день.

Богородицкое - район местоположения метеостанции


Название, широта, долгота, высота метеостанции:
Богородицкое 51.17°ш. 37.35°д. 226 м над ур. моря [Российская Федерация]

Дополнительная информация

В oтличие oт бoльшинства пoгoдных сайтoв мы публикуем пoдрoбную метеoинфoрмацию в детальнoм прoфессиoнальнoм фoрмате.

Характеристики температуры и влажнoсти вoздуха измеряются на высoте 2 м в тени вдали oт зданий и деревьев.
Скoрoсть ветра измеряется на высoте 10 м (на урoвне рoста челoвека скoрoсть ветра ниже в 1.5-2 раза). Если метеoстанция нахoдится в гoрoде или в лесу, тo скoрoсть ветра занижена на 2-4 м/с пo сравнению с oткрытым местoм. Скoрoсть ветра над акватoриями крупных рек и oзёр, а также на вершинах хoлмoв на 2-5 м/с выше, чем в oбычных услoвиях.
Атмoсфернoе давление в разных тoчках местнoсти мoжет значительнo oтличаться oт давления на метеoстанции, в зависимoсти oт услoвий рельефа (при пoдъёме на 10 м давление пoнижается примернo на 1 мм рт.ст.).